Location: Grieser Field
(39.7333°N, 81.7975°W)
Time: 17:39:50
(UTC-04:00)

Meteor 2-1 Rocket - Visible Passes

Search period start: 23 April 2017 00:00
Search period end: 03 May 2017 00:00
Orbit: 830 x 907 km, 81.3° (Epoch: 22 April)

Date Brightness Start Highest point End Pass type
(mag) Time Alt. Az. Time Alt. Az. Time Alt. Az.
23 Apr 5.2 05:32:45 10° N 05:38:15 53° ENE 05:43:49 10° SSE visible
24 Apr 5.1 05:26:03 10° N 05:31:34 54° ENE 05:37:10 10° SSE visible
25 Apr 5.0 05:19:21 10° N 05:24:54 55° ENE 05:30:32 10° SSE visible
26 Apr 5.0 05:12:40 10° N 05:18:14 56° ENE 05:23:53 10° SSE visible
27 Apr 4.9 05:05:58 10° N 05:11:33 58° ENE 05:17:13 10° SSE visible
28 Apr 4.9 04:59:17 10° N 05:04:53 59° ENE 05:10:35 10° SSE visible
29 Apr 4.8 04:52:35 10° N 04:58:13 60° ENE 05:03:55 10° SSE visible
30 Apr 4.8 04:45:53 10° N 04:51:33 62° E 04:57:16 10° SSE visible
01 May 4.7 04:39:12 10° N 04:44:52 63° E 04:50:37 10° SSE visible
02 May 4.7 04:32:30 10° N 04:38:11 65° E 04:43:57 10° SSE visible
